Time,TemperatureF,DewpointF,PressureIn,WindDirection,WindDirectionDegrees,WindSpeedMPH,WindSpeedGustMPH,Humidity,HourlyPrecipIn,Conditions,Clouds,dailyrainin,SoftwareType,DateUTC
2013-04-15 00:00:00,57.6,45.5,28.88,South,183,0.0,0.0,64,0.00,,SKC,0.00,VWS V14.00,2013-04-15 04:00:00,
2013-04-15 00:03:00,57.6,45.5,28.88,South,183,0.0,0.0,64,0.00,,SKC,0.00,VWS V14.00,2013-04-15 04:03:00,
2013-04-15 00:08:00,57.6,45.5,28.88,South,183,0.0,0.0,64,0.00,,SKC,0.00,VWS V14.00,2013-04-15 04:08:00,
2013-04-15 00:13:00,57.6,45.5,28.88,South,183,0.0,0.0,64,0.00,,SKC,0.00,VWS V14.00,2013-04-15 04:13:00,
2013-04-15 00:18:00,57.6,45.5,28.88,South,183,0.0,0.0,64,0.00,,SKC,0.00,VWS V14.00,2013-04-15 04:18:00,
2013-04-15 00:23:00,57.6,45.5,28.88,South,183,0.0,0.0,64,0.00,,SKC,0.00,VWS V14.00,2013-04-15 04:23:00,
2013-04-15 00:28:00,57.6,45.5,28.88,South,183,0.0,0.0,64,0.00,,SKC,0.00,VWS V14.00,2013-04-15 04:28:00,
2013-04-15 00:33:00,57.6,45.5,28.88,South,183,0.0,0.0,64,0.00,,SKC,0.00,VWS V14.00,2013-04-15 04:33:00,
2013-04-15 00:38:00,57.6,45.9,28.88,SW,229,0.0,0.0,65,0.00,,SKC,0.00,VWS V14.00,2013-04-15 04:38:00,
2013-04-15 00:43:00,57.6,45.9,28.88,SSW,203,0.0,0.0,65,0.00,,SKC,0.00,VWS V14.00,2013-04-15 04:43:00,
2013-04-15 00:48:00,57.6,45.9,28.88,SW,222,0.0,0.0,65,0.00,,SKC,0.00,VWS V14.00,2013-04-15 04:48:00,
2013-04-15 00:53:00,57.6,45.9,28.88,SW,222,0.0,0.0,65,0.00,,SKC,0.00,VWS V14.00,2013-04-15 04:53:00,
2013-04-15 00:58:00,57.6,46.3,28.88,South,170,0.0,0.0,66,0.00,,SKC,0.00,VWS V14.00,2013-04-15 04:58:00,
2013-04-15 01:03:00,57.6,46.3,28.88,South,170,0.0,0.0,66,0.00,,SKC,0.00,VWS V14.00,2013-04-15 05:03:00,
2013-04-15 01:08:00,57.4,46.1,28.88,South,170,0.0,0.0,66,0.00,,SKC,0.00,VWS V14.00,2013-04-15 05:08:00,
2013-04-15 01:13:00,57.4,46.1,28.88,South,170,0.0,0.0,66,0.00,,SKC,0.00,VWS V14.00,2013-04-15 05:13:00,
2013-04-15 01:18:00,57.4,46.1,28.88,South,170,0.0,0.0,66,0.00,,SKC,0.00,VWS V14.00,2013-04-15 05:18:00,
2013-04-15 01:23:00,57.4,46.1,28.88,South,170,0.0,0.0,66,0.00,,SKC,0.00,VWS V14.00,2013-04-15 05:23:00,
2013-04-15 01:28:00,57.4,46.1,28.88,South,170,0.0,0.0,66,0.00,,SKC,0.00,VWS V14.00,2013-04-15 05:28:00,
2013-04-15 01:33:00,57.4,46.5,28.88,South,170,0.0,0.0,67,0.00,,SKC,0.00,VWS V14.00,2013-04-15 05:33:00,
2013-04-15 01:38:00,57.4,46.5,28.88,South,170,0.0,0.0,67,0.00,,SKC,0.00,VWS V14.00,2013-04-15 05:38:00,
2013-04-15 01:43:00,57.4,46.5,28.88,South,170,0.0,0.0,67,0.00,,SKC,0.00,VWS V14.00,2013-04-15 05:43:00,
2013-04-15 01:48:00,57.4,46.5,28.88,South,170,0.0,0.0,67,0.00,,SKC,0.00,VWS V14.00,2013-04-15 05:48:00,
2013-04-15 01:53:00,57.4,46.5,28.88,South,170,0.0,0.0,67,0.00,,SKC,0.00,VWS V14.00,2013-04-15 05:53:00,
2013-04-15 01:58:00,57.4,46.5,28.88,South,170,0.0,0.0,67,0.00,,SKC,0.00,VWS V14.00,2013-04-15 05:58:00,
2013-04-15 02:03:00,57.4,46.5,28.88,South,170,0.0,0.0,67,0.00,,SKC,0.00,VWS V14.00,2013-04-15 06:03:00,
2013-04-15 02:08:00,57.4,46.5,28.88,South,170,0.0,0.0,67,0.00,,SKC,0.00,VWS V14.00,2013-04-15 06:08:00,
2013-04-15 02:13:00,57.4,46.5,28.88,South,170,0.0,0.0,67,0.00,,SKC,0.00,VWS V14.00,2013-04-15 06:13:00,
2013-04-15 02:18:00,57.2,46.4,28.88,South,170,0.0,0.0,67,0.00,,SKC,0.00,VWS V14.00,2013-04-15 06:18:00,
2013-04-15 02:23:00,57.2,46.4,28.88,South,170,0.0,0.0,67,0.00,,SKC,0.00,VWS V14.00,2013-04-15 06:23:00,
2013-04-15 02:28:00,57.2,46.4,28.88,South,170,0.0,0.0,67,0.00,,SKC,0.00,VWS V14.00,2013-04-15 06:28:00,
2013-04-15 02:33:00,57.2,46.8,28.88,South,170,0.0,0.0,68,0.00,,SKC,0.00,VWS V14.00,2013-04-15 06:33:00,
2013-04-15 02:38:00,57.2,46.8,28.88,South,170,0.0,0.0,68,0.00,,SKC,0.00,VWS V14.00,2013-04-15 06:38:00,
2013-04-15 02:43:00,57.2,46.8,28.88,South,170,0.0,0.0,68,0.00,,SKC,0.00,VWS V14.00,2013-04-15 06:43:00,
2013-04-15 02:48:00,57.2,46.8,28.88,South,170,0.0,0.0,68,0.00,,SKC,0.00,VWS V14.00,2013-04-15 06:48:00,
2013-04-15 02:53:00,57.0,46.6,28.88,South,170,0.0,0.0,68,0.00,,SKC,0.00,VWS V14.00,2013-04-15 06:53:00,
2013-04-15 02:58:00,56.8,46.4,28.88,South,170,0.0,0.0,68,0.00,,SKC,0.00,VWS V14.00,2013-04-15 06:58:00,
2013-04-15 03:03:00,56.7,46.2,28.88,South,170,0.0,0.0,68,0.00,,SKC,0.00,VWS V14.00,2013-04-15 07:03:00,
2013-04-15 03:45:00,55.4,45.4,28.85,South,170,0.0,0.0,69,0.00,,SKC,0.00,VWS V14.00,2013-04-15 07:45:00,
2013-04-15 03:49:00,55.2,45.2,28.88,South,170,0.0,0.0,69,0.00,,SKC,0.00,VWS V14.00,2013-04-15 07:49:00,
2013-04-15 03:55:00,55.2,45.2,28.88,South,170,0.0,0.0,69,0.00,,SKC,0.00,VWS V14.00,2013-04-15 07:55:00,
2013-04-15 04:00:00,55.2,45.2,28.88,South,170,0.0,0.0,69,0.00,,SKC,0.00,VWS V14.00,2013-04-15 08:00:00,
2013-04-15 04:05:00,55.2,45.6,28.88,South,170,0.0,0.0,70,0.00,,SKC,0.00,VWS V14.00,2013-04-15 08:05:00,
2013-04-15 04:10:00,55.2,45.6,28.88,South,170,0.0,0.0,70,0.00,,SKC,0.00,VWS V14.00,2013-04-15 08:10:00,
2013-04-15 04:15:00,55.0,45.5,28.88,South,170,0.0,0.0,70,0.00,,SKC,0.00,VWS V14.00,2013-04-15 08:15:00,
2013-04-15 04:20:00,55.0,45.5,28.88,South,170,0.0,0.0,70,0.00,,SKC,0.00,VWS V14.00,2013-04-15 08:20:00,
2013-04-15 04:25:00,55.0,45.5,28.88,South,170,0.0,0.0,70,0.00,,SKC,0.00,VWS V14.00,2013-04-15 08:25:00,
2013-04-15 04:30:00,54.9,45.3,28.88,South,170,0.0,0.0,70,0.00,,SKC,0.00,VWS V14.00,2013-04-15 08:30:00,
2013-04-15 04:35:00,54.9,45.7,28.88,South,170,0.0,0.0,71,0.00,,SKC,0.00,VWS V14.00,2013-04-15 08:35:00,
2013-04-15 04:40:00,54.9,45.7,28.88,South,170,0.0,0.0,71,0.00,,SKC,0.00,VWS V14.00,2013-04-15 08:40:00,
2013-04-15 04:45:00,54.9,45.7,28.88,South,170,0.0,0.0,71,0.00,,SKC,0.00,VWS V14.00,2013-04-15 08:45:00,
2013-04-15 04:49:00,54.7,45.5,28.88,South,170,0.0,0.0,71,0.00,,SKC,0.00,VWS V14.00,2013-04-15 08:49:00,
2013-04-15 04:50:00,54.7,45.5,28.88,South,170,0.0,0.0,71,0.00,,SKC,0.00,VWS V14.00,2013-04-15 08:50:00,
2013-04-15 04:55:00,54.7,45.5,28.88,South,170,0.0,0.0,71,0.00,,SKC,0.00,VWS V14.00,2013-04-15 08:55:00,
2013-04-15 05:00:00,54.9,45.7,28.88,South,170,0.0,0.0,71,0.00,,SKC,0.00,VWS V14.00,2013-04-15 09:00:00,
2013-04-15 05:05:00,54.9,45.7,28.88,South,170,0.0,0.0,71,0.00,,SKC,0.00,VWS V14.00,2013-04-15 09:05:00,
2013-04-15 05:10:00,54.9,45.7,28.88,South,170,0.0,0.0,71,0.00,,SKC,0.00,VWS V14.00,2013-04-15 09:10:00,
2013-04-15 05:15:00,54.9,45.7,28.88,South,170,0.0,0.0,71,0.00,,SKC,0.00,VWS V14.00,2013-04-15 09:15:00,
2013-04-15 05:20:00,54.9,45.7,28.88,South,170,0.0,0.0,71,0.00,,SKC,0.00,VWS V14.00,2013-04-15 09:20:00,
2013-04-15 05:25:00,55.0,45.8,28.88,South,170,0.0,0.0,71,0.00,,SKC,0.00,VWS V14.00,2013-04-15 09:25:00,
2013-04-15 05:30:00,55.0,45.8,28.88,South,170,0.0,0.0,71,0.00,,SKC,0.00,VWS V14.00,2013-04-15 09:30:00,
2013-04-15 05:35:00,54.9,45.7,28.88,South,170,0.0,0.0,71,0.00,,SKC,0.00,VWS V14.00,2013-04-15 09:35:00,
2013-04-15 05:40:00,54.9,46.0,28.88,South,170,0.0,0.0,72,0.00,,SKC,0.00,VWS V14.00,2013-04-15 09:40:00,
2013-04-15 05:45:00,54.9,46.0,28.88,South,170,0.0,0.0,72,0.00,,SKC,0.00,VWS V14.00,2013-04-15 09:45:00,
2013-04-15 05:50:00,54.9,46.0,28.91,South,170,0.0,0.0,72,0.00,,SKC,0.00,VWS V14.00,2013-04-15 09:50:00,
2013-04-15 05:55:00,54.9,45.7,28.91,South,170,0.0,0.0,71,0.00,,SKC,0.00,VWS V14.00,2013-04-15 09:55:00,
2013-04-15 06:00:00,54.7,45.8,28.91,South,170,0.0,0.0,72,0.00,,SKC,0.00,VWS V14.00,2013-04-15 10:00:00,
2013-04-15 06:05:00,54.7,45.8,28.91,South,170,0.0,0.0,72,0.00,,SKC,0.00,VWS V14.00,2013-04-15 10:05:00,
2013-04-15 06:10:00,54.7,45.8,28.91,South,170,0.0,0.0,72,0.00,,SKC,0.00,VWS V14.00,2013-04-15 10:10:00,
2013-04-15 06:15:00,54.7,45.8,28.91,South,170,0.0,0.0,72,0.00,,SKC,0.00,VWS V14.00,2013-04-15 10:15:00,
2013-04-15 06:20:00,54.9,46.0,28.91,South,170,0.0,0.0,72,0.00,,SKC,0.00,VWS V14.00,2013-04-15 10:20:00,
2013-04-15 06:25:00,54.9,46.0,28.91,South,170,0.0,0.0,72,0.00,,SKC,0.00,VWS V14.00,2013-04-15 10:25:00,
2013-04-15 06:30:00,54.9,46.0,28.91,South,170,0.0,0.0,72,0.00,,SKC,0.00,VWS V14.00,2013-04-15 10:30:00,
2013-04-15 06:35:00,54.9,46.0,28.91,South,170,0.0,0.0,72,0.00,,SKC,0.00,VWS V14.00,2013-04-15 10:35:00,
2013-04-15 06:40:00,54.9,46.0,28.91,South,170,0.0,0.0,72,0.00,,SKC,0.00,VWS V14.00,2013-04-15 10:40:00,
2013-04-15 06:45:00,55.0,46.2,28.91,South,170,0.0,0.0,72,0.00,,SKC,0.00,VWS V14.00,2013-04-15 10:45:00,
2013-04-15 06:50:00,55.0,46.2,28.91,South,170,0.0,0.0,72,0.00,,SKC,0.00,VWS V14.00,2013-04-15 10:50:00,
2013-04-15 06:55:00,55.0,46.2,28.91,South,170,0.0,0.0,72,0.00,,SKC,0.00,VWS V14.00,2013-04-15 10:55:00,
2013-04-15 07:06:00,54.9,46.0,28.94,South,170,0.0,0.0,72,0.00,,SKC,0.00,VWS V14.00,2013-04-15 11:06:00,
2013-04-15 07:11:00,54.9,46.4,28.94,South,170,0.0,0.0,73,0.00,,SKC,0.00,VWS V14.00,2013-04-15 11:11:00,
2013-04-15 07:16:00,54.9,46.4,28.94,South,170,0.0,0.0,73,0.00,,SKC,0.00,VWS V14.00,2013-04-15 11:16:00,
2013-04-15 07:21:00,54.9,46.4,28.94,South,170,0.0,0.0,73,0.00,,SKC,0.00,VWS V14.00,2013-04-15 11:21:00,
2013-04-15 07:26:00,54.9,46.4,28.94,South,170,0.0,0.0,73,0.00,,SKC,0.00,VWS V14.00,2013-04-15 11:26:00,
2013-04-15 07:40:00,55.2,46.7,28.94,South,170,0.0,0.0,73,0.00,,SKC,0.00,VWS V14.00,2013-04-15 11:40:00,
2013-04-15 07:46:00,55.2,46.7,28.94,South,170,0.0,0.0,73,0.00,,SKC,0.00,VWS V14.00,2013-04-15 11:46:00,
2013-04-15 07:51:00,55.4,46.9,28.94,South,170,0.0,0.0,73,0.00,,SKC,0.00,VWS V14.00,2013-04-15 11:51:00,
2013-04-15 07:56:00,55.8,47.2,28.94,South,170,0.0,0.0,73,0.00,,SKC,0.00,VWS V14.00,2013-04-15 11:56:00,
2013-04-15 08:01:00,55.9,47.4,28.94,South,170,0.0,0.0,73,0.00,,SKC,0.00,VWS V14.00,2013-04-15 12:01:00,
2013-04-15 08:06:00,56.3,48.1,28.97,South,170,0.0,0.0,74,0.00,,SKC,0.00,VWS V14.00,2013-04-15 12:06:00,
2013-04-15 08:11:00,56.3,48.1,28.97,South,170,0.0,0.0,74,0.00,,SKC,0.00,VWS V14.00,2013-04-15 12:11:00,
2013-04-15 08:16:00,56.7,48.5,28.97,South,170,0.0,0.0,74,0.00,,SKC,0.00,VWS V14.00,2013-04-15 12:16:00,
2013-04-15 08:21:00,56.8,48.7,28.97,South,170,0.0,0.0,74,0.00,,SKC,0.00,VWS V14.00,2013-04-15 12:21:00,
2013-04-15 08:26:00,57.0,48.8,28.97,South,170,0.0,0.0,74,0.00,,SKC,0.00,VWS V14.00,2013-04-15 12:26:00,
2013-04-15 08:31:00,57.2,49.0,28.97,South,170,0.0,0.0,74,0.00,,SKC,0.00,VWS V14.00,2013-04-15 12:31:00,
2013-04-15 08:36:00,57.6,49.3,28.97,South,170,0.0,0.0,74,0.00,,SKC,0.00,VWS V14.00,2013-04-15 12:36:00,
2013-04-15 08:41:00,57.7,49.5,28.97,South,170,0.0,0.0,74,0.00,,SKC,0.00,VWS V14.00,2013-04-15 12:41:00,
2013-04-15 08:47:00,58.1,49.9,28.97,South,170,0.0,0.0,74,0.00,,SKC,0.00,VWS V14.00,2013-04-15 12:47:00,
2013-04-15 08:52:00,58.3,50.0,28.97,South,170,0.0,0.0,74,0.00,,SKC,0.00,VWS V14.00,2013-04-15 12:52:00,
2013-04-15 08:57:00,58.6,50.0,28.97,South,170,0.0,0.0,73,0.00,,SKC,0.00,VWS V14.00,2013-04-15 12:57:00,
2013-04-15 09:02:00,59.2,50.5,28.97,South,170,0.0,0.0,73,0.00,,SKC,0.00,VWS V14.00,2013-04-15 13:02:00,
2013-04-15 09:07:00,59.4,50.7,28.97,South,170,0.0,0.0,73,0.00,,SKC,0.00,VWS V14.00,2013-04-15 13:07:00,
2013-04-15 09:12:00,59.7,51.1,28.97,South,170,0.0,0.0,73,0.00,,SKC,0.00,VWS V14.00,2013-04-15 13:12:00,
2013-04-15 09:17:00,60.1,51.4,28.97,South,170,0.0,0.0,73,0.00,,SKC,0.00,VWS V14.00,2013-04-15 13:17:00,
2013-04-15 09:22:00,60.4,51.4,28.97,South,170,0.0,0.0,72,0.00,,SKC,0.00,VWS V14.00,2013-04-15 13:22:00,
2013-04-15 09:27:00,60.6,51.6,28.97,SSW,196,0.0,0.0,72,0.00,,SKC,0.00,VWS V14.00,2013-04-15 13:27:00,
2013-04-15 09:32:00,61.2,52.1,28.97,NE,43,0.0,0.0,72,0.00,,SKC,0.00,VWS V14.00,2013-04-15 13:32:00,
2013-04-15 09:37:00,61.5,52.0,28.97,NE,47,0.0,0.0,71,0.00,,SKC,0.00,VWS V14.00,2013-04-15 13:37:00,
2013-04-15 09:42:00,62.1,52.6,28.97,ENE,57,0.0,0.0,71,0.00,,SKC,0.00,VWS V14.00,2013-04-15 13:42:00,
2013-04-15 09:47:00,62.6,53.1,28.97,ENE,57,0.0,0.0,71,0.00,,SKC,0.00,VWS V14.00,2013-04-15 13:47:00,
2013-04-15 09:52:00,63.0,53.0,28.97,ENE,57,0.0,0.0,70,0.00,,SKC,0.00,VWS V14.00,2013-04-15 13:52:00,
2013-04-15 09:57:00,63.1,53.2,28.97,NNE,32,0.0,0.0,70,0.00,,SKC,0.00,VWS V14.00,2013-04-15 13:57:00,
2013-04-15 10:07:00,64.0,53.7,28.97,North,0,0.0,0.0,69,0.00,,SKC,0.00,VWS V14.00,2013-04-15 14:07:00,
2013-04-15 10:12:00,64.4,53.6,28.97,North,0,0.0,0.0,68,0.00,,SKC,0.00,VWS V14.00,2013-04-15 14:12:00,
2013-04-15 10:17:00,65.1,53.9,28.97,NNE,12,0.0,0.0,67,0.00,,SKC,0.00,VWS V14.00,2013-04-15 14:17:00,
2013-04-15 10:22:00,65.1,53.5,28.97,NE,37,0.0,4.0,66,0.00,,SKC,0.00,VWS V14.00,2013-04-15 14:22:00,
2013-04-15 10:27:00,65.7,53.6,28.97,NE,35,0.0,4.0,65,0.00,,SKC,0.00,VWS V14.00,2013-04-15 14:27:00,
2013-04-15 10:32:00,66.0,53.9,29.00,NE,47,0.0,0.0,65,0.00,,SKC,0.00,VWS V14.00,2013-04-15 14:32:00,
2013-04-15 10:37:00,66.2,53.7,29.00,NW,305,2.7,2.7,64,0.00,,SKC,0.00,VWS V14.00,2013-04-15 14:37:00,
2013-04-15 10:42:00,66.2,53.7,29.00,WNW,300,0.0,0.0,64,0.00,,SKC,0.00,VWS V14.00,2013-04-15 14:42:00,
2013-04-15 10:47:00,66.0,53.1,29.00,SSE,165,0.0,0.0,63,0.00,,SKC,0.00,VWS V14.00,2013-04-15 14:47:00,
2013-04-15 10:52:00,66.0,53.5,29.00,WNW,303,0.0,0.0,64,0.00,,SKC,0.00,VWS V14.00,2013-04-15 14:52:00,
2013-04-15 10:57:00,66.2,53.2,29.00,NW,306,0.0,3.6,63,0.00,,SKC,0.00,VWS V14.00,2013-04-15 14:57:00,
2013-04-15 11:02:00,66.2,52.8,29.00,NE,55,3.2,3.2,62,0.00,,SKC,0.00,VWS V14.00,2013-04-15 15:02:00,
2013-04-15 11:07:00,66.4,53.0,29.00,NE,39,0.0,3.1,62,0.00,,SKC,0.00,VWS V14.00,2013-04-15 15:07:00,
2013-04-15 11:12:00,66.7,52.9,29.00,NNE,23,4.3,4.3,61,0.00,,SKC,0.00,VWS V14.00,2013-04-15 15:12:00,
2013-04-15 11:17:00,66.7,52.9,29.00,NW,315,0.0,3.6,61,0.00,,SKC,0.00,VWS V14.00,2013-04-15 15:17:00,
2013-04-15 11:23:00,66.9,52.6,29.00,South,189,0.0,0.0,60,0.00,,SKC,0.00,VWS V14.00,2013-04-15 15:23:00,
2013-04-15 11:28:00,67.1,52.8,29.00,SW,236,0.0,0.0,60,0.00,,SKC,0.00,VWS V14.00,2013-04-15 15:28:00,
2013-04-15 11:33:00,67.5,53.1,29.00,SW,235,0.0,0.0,60,0.00,,SKC,0.00,VWS V14.00,2013-04-15 15:33:00,
2013-04-15 11:38:00,67.8,53.4,29.00,SW,235,0.0,0.0,60,0.00,,SKC,0.00,VWS V14.00,2013-04-15 15:38:00,
2013-04-15 11:43:00,68.4,54.0,29.00,WSW,245,0.0,3.1,60,0.00,,SKC,0.00,VWS V14.00,2013-04-15 15:43:00,
2013-04-15 11:48:00,68.5,53.7,29.00,South,190,0.0,4.9,59,0.00,,SKC,0.00,VWS V14.00,2013-04-15 15:48:00,
2013-04-15 11:53:00,68.7,53.8,29.00,SW,222,3.2,3.2,59,0.00,,SKC,0.00,VWS V14.00,2013-04-15 15:53:00,
2013-04-15 11:58:00,69.1,53.7,29.00,SW,217,0.0,4.0,58,0.00,,SKC,0.00,VWS V14.00,2013-04-15 15:58:00,
2013-04-15 12:03:00,69.6,54.2,28.97,SSW,200,0.0,2.7,58,0.00,,SKC,0.00,VWS V14.00,2013-04-15 16:03:00,
2013-04-15 12:08:00,70.2,54.2,28.97,West,265,0.0,3.6,57,0.00,,SKC,0.00,VWS V14.00,2013-04-15 16:08:00,
2013-04-15 12:13:00,70.3,53.4,28.97,NNW,332,0.0,4.0,55,0.00,,SKC,0.00,VWS V14.00,2013-04-15 16:13:00,
2013-04-15 12:18:00,70.3,53.4,28.97,East,82,0.0,5.4,55,0.00,,SKC,0.00,VWS V14.00,2013-04-15 16:18:00,
2013-04-15 12:28:00,70.5,52.6,28.97,ENE,60,0.0,4.9,53,0.00,,SKC,0.00,VWS V14.00,2013-04-15 16:28:00,
2013-04-15 12:33:00,70.7,52.8,28.97,NNW,329,0.0,0.0,53,0.00,,SKC,0.00,VWS V14.00,2013-04-15 16:33:00,
2013-04-15 12:38:00,71.2,53.2,28.97,NW,317,4.3,4.3,53,0.00,,SKC,0.00,VWS V14.00,2013-04-15 16:38:00,
2013-04-15 12:43:00,71.6,53.1,28.97,NW,324,0.0,0.0,52,0.00,,SKC,0.00,VWS V14.00,2013-04-15 16:43:00,
2013-04-15 12:48:00,72.1,51.4,28.97,North,8,0.0,3.1,48,0.00,,SKC,0.00,VWS V14.00,2013-04-15 16:48:00,
2013-04-15 12:53:00,72.5,52.8,29.00,NW,325,0.0,0.0,50,0.00,,SKC,0.00,VWS V14.00,2013-04-15 16:53:00,
2013-04-15 12:58:00,72.5,52.3,29.00,NW,321,4.3,4.9,49,0.00,,SKC,0.00,VWS V14.00,2013-04-15 16:58:00,
2013-04-15 13:03:00,73.0,52.8,28.97,WNW,296,0.0,0.0,49,0.00,,SKC,0.00,VWS V14.00,2013-04-15 17:03:00,
2013-04-15 13:08:00,73.6,53.3,28.97,NW,308,3.8,4.9,49,0.00,,SKC,0.00,VWS V14.00,2013-04-15 17:08:00,
2013-04-15 13:13:00,74.1,53.2,28.97,SE,136,3.2,3.6,48,0.00,,SKC,0.00,VWS V14.00,2013-04-15 17:13:00,
2013-04-15 13:18:00,74.1,53.2,28.97,NNW,335,7.0,7.0,48,0.00,,SKC,0.00,VWS V14.00,2013-04-15 17:18:00,
2013-04-15 13:23:00,73.9,52.5,28.97,WNW,286,0.0,2.2,47,0.00,,SKC,0.00,VWS V14.00,2013-04-15 17:23:00,
2013-04-15 13:28:00,74.8,53.8,28.97,NNW,335,5.4,5.4,48,0.00,,SKC,0.00,VWS V14.00,2013-04-15 17:28:00,
2013-04-15 13:30:00,75.0,52.9,28.97,NNW,333,0.0,4.5,46,0.00,,SKC,0.00,VWS V14.00,2013-04-15 17:30:00,
2013-04-15 13:33:00,75.4,53.8,28.97,ESE,114,3.2,3.6,47,0.00,,SKC,0.00,VWS V14.00,2013-04-15 17:33:00,
2013-04-15 13:38:00,75.9,53.1,28.97,WSW,238,0.0,3.6,45,0.00,,SKC,0.00,VWS V14.00,2013-04-15 17:38:00,
2013-04-15 13:43:00,76.3,53.4,28.97,NW,322,3.2,3.2,45,0.00,,SKC,0.00,VWS V14.00,2013-04-15 17:43:00,
2013-04-15 13:48:00,76.3,53.4,28.97,SW,220,5.9,5.9,45,0.00,,SKC,0.00,VWS V14.00,2013-04-15 17:48:00,
2013-04-15 13:53:00,76.8,53.3,28.97,NW,314,0.0,3.1,44,0.00,,SKC,0.00,VWS V14.00,2013-04-15 17:53:00,
2013-04-15 13:58:00,77.2,53.6,28.97,West,267,0.0,3.1,44,0.00,,SKC,0.00,VWS V14.00,2013-04-15 17:58:00,
2013-04-15 14:03:00,77.5,53.9,28.97,North,353,0.0,3.1,44,0.00,,SKC,0.00,VWS V14.00,2013-04-15 18:03:00,
2013-04-15 14:08:00,77.5,53.3,28.97,SW,235,0.0,5.8,43,0.00,,SKC,0.00,VWS V14.00,2013-04-15 18:08:00,
2013-04-15 14:13:00,78.3,54.6,28.97,South,180,3.8,4.9,44,0.00,,SKC,0.00,VWS V14.00,2013-04-15 18:13:00,
2013-04-15 14:18:00,78.6,54.3,28.97,North,353,0.0,4.9,43,0.00,,SKC,0.00,VWS V14.00,2013-04-15 18:18:00,
2013-04-15 14:23:00,79.2,54.1,28.97,West,279,0.0,0.0,42,0.00,,SKC,0.00,VWS V14.00,2013-04-15 18:23:00,
2013-04-15 14:30:00,79.0,54.0,28.97,NW,306,0.0,0.0,42,0.00,,SKC,0.00,VWS V14.00,2013-04-15 18:30:00,
2013-04-15 14:33:00,79.2,53.5,28.97,SSW,196,0.0,0.0,41,0.00,,SKC,0.00,VWS V14.00,2013-04-15 18:33:00,
2013-04-15 14:38:00,79.2,52.8,28.97,NW,321,0.0,5.4,40,0.00,,SKC,0.00,VWS V14.00,2013-04-15 18:38:00,
2013-04-15 14:40:00,79.0,52.6,28.97,SW,219,0.0,5.4,40,0.00,,SKC,0.00,VWS V14.00,2013-04-15 18:40:00,
2013-04-15 14:48:00,79.0,52.6,28.97,SSW,211,0.0,4.0,40,0.00,,SKC,0.00,VWS V14.00,2013-04-15 18:48:00,
2013-04-15 14:53:00,79.5,53.1,28.97,WNW,285,3.2,3.6,40,0.00,,SKC,0.00,VWS V14.00,2013-04-15 18:53:00,
2013-04-15 14:58:00,79.3,53.0,28.97,ENE,57,0.0,5.4,40,0.00,,SKC,0.00,VWS V14.00,2013-04-15 18:58:00,
2013-04-15 15:03:00,79.2,52.1,28.94,NE,52,0.0,0.0,39,0.00,,SKC,0.00,VWS V14.00,2013-04-15 19:03:00,
2013-04-15 15:08:00,79.2,52.1,28.94,North,1,0.0,0.0,39,0.00,,SKC,0.00,VWS V14.00,2013-04-15 19:08:00,
2013-04-15 15:13:00,79.7,53.3,28.94,WSW,239,0.0,3.1,40,0.00,,SKC,0.00,VWS V14.00,2013-04-15 19:13:00,
2013-04-15 15:19:00,80.2,53.8,28.94,NW,322,4.3,4.3,40,0.00,,SKC,0.00,VWS V14.00,2013-04-15 19:19:00,
2013-04-15 15:24:00,80.4,53.9,28.94,NNW,328,0.0,4.0,40,0.00,,SKC,0.00,VWS V14.00,2013-04-15 19:24:00,
2013-04-15 15:29:00,80.6,53.4,28.94,South,170,3.8,4.0,39,0.00,,SKC,0.00,VWS V14.00,2013-04-15 19:29:00,
2013-04-15 15:34:00,81.1,53.9,28.94,SSW,211,0.0,3.6,39,0.00,,SKC,0.00,VWS V14.00,2013-04-15 19:34:00,
2013-04-15 15:39:00,81.0,53.0,28.94,North,9,0.0,3.6,38,0.00,,SKC,0.00,VWS V14.00,2013-04-15 19:39:00,
2013-04-15 15:44:00,80.2,51.6,28.94,North,4,2.7,4.9,37,0.00,,SKC,0.00,VWS V14.00,2013-04-15 19:44:00,
2013-04-15 15:49:00,80.1,52.2,28.94,SSW,192,6.4,6.4,38,0.00,,SKC,0.00,VWS V14.00,2013-04-15 19:49:00,
2013-04-15 15:59:00,80.4,51.8,28.94,NW,308,0.0,5.4,37,0.00,,SKC,0.00,VWS V14.00,2013-04-15 19:59:00,
2013-04-15 16:04:00,80.6,52.0,28.94,NW,312,0.0,3.6,37,0.00,,SKC,0.00,VWS V14.00,2013-04-15 20:04:00,
2013-04-15 16:09:00,80.2,51.6,28.94,NNE,21,0.0,3.6,37,0.00,,SKC,0.00,VWS V14.00,2013-04-15 20:09:00,
2013-04-15 16:14:00,80.4,52.5,28.94,SSW,210,0.0,3.1,38,0.00,,SKC,0.00,VWS V14.00,2013-04-15 20:14:00,
2013-04-15 16:19:00,81.0,53.0,28.91,SSE,165,0.0,3.1,38,0.00,,SKC,0.00,VWS V14.00,2013-04-15 20:19:00,
2013-04-15 16:20:00,81.0,53.0,28.91,SSW,200,0.0,3.1,38,0.00,,SKC,0.00,VWS V14.00,2013-04-15 20:20:00,
2013-04-15 16:29:00,81.0,52.3,28.91,SSW,195,0.0,3.6,37,0.00,,SKC,0.00,VWS V14.00,2013-04-15 20:29:00,
2013-04-15 16:34:00,80.8,51.4,28.91,NNW,327,0.0,5.4,36,0.00,,SKC,0.00,VWS V14.00,2013-04-15 20:34:00,
2013-04-15 16:39:00,80.2,50.9,28.91,WNW,300,4.3,5.4,36,0.00,,SKC,0.00,VWS V14.00,2013-04-15 20:39:00,
2013-04-15 16:40:00,80.1,50.7,28.91,WNW,303,0.0,5.4,36,0.00,,SKC,0.00,VWS V14.00,2013-04-15 20:40:00,
2013-04-15 16:49:00,79.9,51.3,28.91,WNW,302,0.0,4.5,37,0.00,,SKC,0.00,VWS V14.00,2013-04-15 20:49:00,
2013-04-15 16:54:00,79.5,50.2,28.91,NNE,28,0.0,0.0,36,0.00,,SKC,0.00,VWS V14.00,2013-04-15 20:54:00,
2013-04-15 16:59:00,79.3,50.1,28.91,NW,314,0.0,0.0,36,0.00,,SKC,0.00,VWS V14.00,2013-04-15 20:59:00,
2013-04-15 17:04:00,79.2,49.9,28.91,WNW,297,0.0,5.4,36,0.00,,SKC,0.00,VWS V14.00,2013-04-15 21:04:00,
2013-04-15 17:09:00,78.8,49.6,28.91,SW,227,0.0,5.4,36,0.00,,SKC,0.00,VWS V14.00,2013-04-15 21:09:00,
2013-04-15 17:14:00,78.6,49.5,28.91,NW,326,3.8,5.8,36,0.00,,SKC,0.00,VWS V14.00,2013-04-15 21:14:00,
2013-04-15 17:19:00,78.4,49.3,28.91,WNW,298,4.8,5.8,36,0.00,,SKC,0.00,VWS V14.00,2013-04-15 21:19:00,
2013-04-15 17:24:00,78.3,49.1,28.91,West,273,0.0,0.0,36,0.00,,SKC,0.00,VWS V14.00,2013-04-15 21:24:00,
2013-04-15 17:29:00,78.3,49.9,28.91,SW,230,0.0,3.6,37,0.00,,SKC,0.00,VWS V14.00,2013-04-15 21:29:00,
2013-04-15 17:34:00,78.4,50.0,28.91,WSW,241,0.0,0.0,37,0.00,,SKC,0.00,VWS V14.00,2013-04-15 21:34:00,
2013-04-15 17:39:00,78.4,50.0,28.91,NNW,327,0.0,3.6,37,0.00,,SKC,0.00,VWS V14.00,2013-04-15 21:39:00,
2013-04-15 17:44:00,78.3,49.9,28.91,NNW,327,2.7,4.9,37,0.00,,SKC,0.00,VWS V14.00,2013-04-15 21:44:00,
2013-04-15 17:49:00,78.3,49.9,28.91,NNW,330,0.0,4.9,37,0.00,,SKC,0.00,VWS V14.00,2013-04-15 21:49:00,
2013-04-15 17:54:00,78.3,49.9,28.91,South,185,4.3,4.3,37,0.00,,SKC,0.00,VWS V14.00,2013-04-15 21:54:00,
2013-04-15 17:59:00,78.3,49.9,28.91,SW,230,0.0,3.6,37,0.00,,SKC,0.00,VWS V14.00,2013-04-15 21:59:00,
2013-04-15 18:04:00,78.1,49.7,28.91,NW,321,0.0,4.0,37,0.00,,SKC,0.00,VWS V14.00,2013-04-15 22:04:00,
2013-04-15 18:09:00,78.1,49.7,28.91,SW,234,0.0,4.0,37,0.00,,SKC,0.00,VWS V14.00,2013-04-15 22:09:00,
2013-04-15 18:14:00,78.1,49.7,28.91,SSW,200,0.0,0.0,37,0.00,,SKC,0.00,VWS V14.00,2013-04-15 22:14:00,
2013-04-15 18:19:00,77.9,49.6,28.91,West,273,0.0,0.0,37,0.00,,SKC,0.00,VWS V14.00,2013-04-15 22:19:00,
2013-04-15 18:24:00,77.9,50.3,28.91,SW,223,0.0,0.0,38,0.00,,SKC,0.00,VWS V14.00,2013-04-15 22:24:00,
2013-04-15 18:29:00,77.7,49.4,28.91,NE,39,4.8,5.8,37,0.00,,SKC,0.00,VWS V14.00,2013-04-15 22:29:00,
2013-04-15 18:34:00,77.4,49.1,28.91,NE,40,0.0,4.0,37,0.00,,SKC,0.00,VWS V14.00,2013-04-15 22:34:00,
2013-04-15 18:39:00,77.4,49.8,28.91,NW,318,0.0,4.0,38,0.00,,SKC,0.00,VWS V14.00,2013-04-15 22:39:00,
2013-04-15 18:44:00,77.2,48.9,28.91,NW,309,0.0,4.0,37,0.00,,SKC,0.00,VWS V14.00,2013-04-15 22:44:00,
2013-04-15 18:49:00,77.2,49.6,28.94,WSW,237,0.0,4.0,38,0.00,,SKC,0.00,VWS V14.00,2013-04-15 22:49:00,
2013-04-15 18:54:00,77.0,49.5,28.94,SSE,165,0.0,0.0,38,0.00,,SKC,0.00,VWS V14.00,2013-04-15 22:54:00,
2013-04-15 18:59:00,77.0,50.2,28.94,SW,234,0.0,0.0,39,0.00,,SKC,0.00,VWS V14.00,2013-04-15 22:59:00,
2013-04-15 19:04:00,76.8,50.0,28.94,SW,223,0.0,0.0,39,0.00,,SKC,0.00,VWS V14.00,2013-04-15 23:04:00,
2013-04-15 19:09:00,76.6,50.5,28.94,SW,223,0.0,0.0,40,0.00,,SKC,0.00,VWS V14.00,2013-04-15 23:09:00,
2013-04-15 19:14:00,76.5,50.4,28.94,SW,223,0.0,0.0,40,0.00,,SKC,0.00,VWS V14.00,2013-04-15 23:14:00,
2013-04-15 19:19:00,76.3,50.2,28.94,SW,223,0.0,0.0,40,0.00,,SKC,0.00,VWS V14.00,2013-04-15 23:19:00,
2013-04-15 19:24:00,76.1,50.0,28.94,WSW,242,0.0,4.0,40,0.00,,SKC,0.00,VWS V14.00,2013-04-15 23:24:00,
2013-04-15 19:29:00,75.7,50.4,28.94,SW,219,0.0,4.0,41,0.00,,SKC,0.00,VWS V14.00,2013-04-15 23:29:00,
2013-04-15 19:34:00,75.6,50.2,28.94,SW,219,0.0,0.0,41,0.00,,SKC,0.00,VWS V14.00,2013-04-15 23:34:00,
2013-04-15 19:39:00,75.2,49.9,28.94,SW,224,0.0,0.0,41,0.00,,SKC,0.00,VWS V14.00,2013-04-15 23:39:00,
2013-04-15 19:44:00,74.8,49.6,28.94,NW,325,0.0,0.0,41,0.00,,SKC,0.00,VWS V14.00,2013-04-15 23:44:00,
2013-04-15 19:49:00,74.5,49.3,28.94,NW,321,0.0,0.0,41,0.00,,SKC,0.00,VWS V14.00,2013-04-15 23:49:00,
2013-04-15 19:54:00,74.3,49.8,28.94,NW,310,0.0,0.0,42,0.00,,SKC,0.00,VWS V14.00,2013-04-15 23:54:00,
2013-04-15 19:59:00,73.8,49.3,28.94,NW,310,0.0,0.0,42,0.00,,SKC,0.00,VWS V14.00,2013-04-15 23:59:00,
2013-04-15 20:04:00,73.6,49.1,28.97,NW,309,0.0,0.0,42,0.00,,SKC,0.00,VWS V14.00,2013-04-16 00:04:00,
2013-04-15 20:09:00,73.2,48.8,28.97,NW,309,0.0,0.0,42,0.00,,SKC,0.00,VWS V14.00,2013-04-16 00:09:00,
2013-04-15 20:14:00,72.9,48.5,28.97,NW,310,0.0,0.0,42,0.00,,SKC,0.00,VWS V14.00,2013-04-16 00:14:00,
2013-04-15 20:19:00,72.5,48.1,28.97,NW,310,0.0,0.0,42,0.00,,SKC,0.00,VWS V14.00,2013-04-16 00:19:00,
2013-04-15 20:25:00,72.1,48.4,28.97,NW,310,0.0,0.0,43,0.00,,SKC,0.00,VWS V14.00,2013-04-16 00:25:00,
2013-04-15 20:30:00,72.0,48.3,28.97,NW,310,0.0,0.0,43,0.00,,SKC,0.00,VWS V14.00,2013-04-16 00:30:00,
2013-04-15 20:35:00,71.6,47.9,28.97,NW,310,0.0,0.0,43,0.00,,SKC,0.00,VWS V14.00,2013-04-16 00:35:00,
2013-04-15 20:40:00,71.2,47.6,28.97,NW,310,0.0,0.0,43,0.00,,SKC,0.00,VWS V14.00,2013-04-16 00:40:00,
2013-04-15 20:45:00,70.9,47.9,28.97,NW,310,0.0,0.0,44,0.00,,SKC,0.00,VWS V14.00,2013-04-16 00:45:00,
2013-04-15 20:50:00,70.5,47.6,28.97,NW,310,0.0,0.0,44,0.00,,SKC,0.00,VWS V14.00,2013-04-16 00:50:00,
2013-04-15 20:55:00,70.0,47.1,28.97,NW,310,0.0,0.0,44,0.00,,SKC,0.00,VWS V14.00,2013-04-16 00:55:00,
2013-04-15 21:00:00,69.6,47.4,28.97,NW,309,0.0,0.0,45,0.00,,SKC,0.24,VWS V14.00,2013-04-16 01:00:00,
2013-04-15 21:05:00,69.3,47.6,28.97,NW,309,0.0,0.0,46,0.00,,SKC,0.00,VWS V14.00,2013-04-16 01:05:00,
2013-04-15 21:10:00,69.1,47.5,28.97,NW,310,0.0,0.0,46,0.00,,SKC,0.00,VWS V14.00,2013-04-16 01:10:00,
2013-04-15 21:15:00,68.9,47.3,28.97,NW,309,0.0,0.0,46,0.00,,SKC,0.00,VWS V14.00,2013-04-16 01:15:00,
2013-04-15 21:20:00,68.7,47.1,29.00,NW,310,0.0,0.0,46,0.00,,SKC,0.00,VWS V14.00,2013-04-16 01:20:00,
2013-04-15 21:25:00,68.5,47.0,29.00,NW,310,0.0,0.0,46,0.00,,SKC,0.00,VWS V14.00,2013-04-16 01:25:00,
2013-04-15 21:30:00,68.4,47.4,29.00,NW,310,0.0,0.0,47,0.00,,SKC,0.00,VWS V14.00,2013-04-16 01:30:00,
2013-04-15 21:35:00,68.0,47.0,29.00,NW,310,0.0,0.0,47,0.00,,SKC,0.00,VWS V14.00,2013-04-16 01:35:00,
2013-04-15 21:40:00,67.8,47.4,29.00,NW,310,0.0,0.0,48,0.00,,SKC,0.00,VWS V14.00,2013-04-16 01:40:00,
2013-04-15 21:45:00,67.5,47.7,29.00,NW,310,0.0,0.0,49,0.00,,SKC,0.00,VWS V14.00,2013-04-16 01:45:00,
2013-04-15 21:50:00,67.1,47.3,29.00,NW,310,0.0,0.0,49,0.00,,SKC,0.00,VWS V14.00,2013-04-16 01:50:00,
2013-04-15 21:55:00,66.9,47.2,29.00,NW,310,0.0,0.0,49,0.00,,SKC,0.00,VWS V14.00,2013-04-16 01:55:00,
2013-04-15 22:00:00,66.7,47.5,29.00,NW,310,0.0,0.0,50,0.00,,SKC,0.00,VWS V14.00,2013-04-16 02:00:00,
2013-04-15 22:05:00,66.4,47.2,29.00,NW,310,0.0,0.0,50,0.00,,SKC,0.00,VWS V14.00,2013-04-16 02:05:00,
2013-04-15 22:10:00,66.0,47.4,29.00,NW,310,0.0,0.0,51,0.00,,SKC,0.00,VWS V14.00,2013-04-16 02:10:00,
2013-04-15 22:15:00,65.8,47.7,29.00,NW,310,0.0,0.0,52,0.00,,SKC,0.00,VWS V14.00,2013-04-16 02:15:00,
2013-04-15 22:20:00,65.5,47.4,29.00,NW,310,0.0,0.0,52,0.00,,SKC,0.00,VWS V14.00,2013-04-16 02:20:00,
2013-04-15 22:25:00,65.3,47.8,29.00,NW,310,0.0,0.0,53,0.00,,SKC,0.00,VWS V14.00,2013-04-16 02:25:00,
2013-04-15 22:30:00,65.3,47.8,29.00,NW,310,0.0,0.0,53,0.00,,SKC,0.00,VWS V14.00,2013-04-16 02:30:00,
2013-04-15 22:35:00,65.3,47.8,29.03,NW,310,0.0,0.0,53,0.00,,SKC,0.00,VWS V14.00,2013-04-16 02:35:00,
2013-04-15 22:40:00,65.5,47.9,29.03,NW,310,0.0,0.0,53,0.00,,SKC,0.00,VWS V14.00,2013-04-16 02:40:00,
2013-04-15 22:45:00,65.3,47.8,29.03,NW,310,0.0,0.0,53,0.00,,SKC,0.00,VWS V14.00,2013-04-16 02:45:00,
2013-04-15 22:50:00,65.1,47.6,29.03,NW,310,0.0,0.0,53,0.00,,SKC,0.00,VWS V14.00,2013-04-16 02:50:00,
2013-04-15 22:55:00,64.9,47.4,29.03,NW,310,0.0,0.0,53,0.00,,SKC,0.00,VWS V14.00,2013-04-16 02:55:00,
2013-04-15 23:00:00,64.8,47.8,29.03,NW,310,0.0,0.0,54,0.00,,SKC,0.00,VWS V14.00,2013-04-16 03:00:00,
2013-04-15 23:05:00,64.4,47.4,29.03,NW,310,0.0,0.0,54,0.00,,SKC,0.00,VWS V14.00,2013-04-16 03:05:00,
2013-04-15 23:10:00,64.0,48.0,29.03,NW,310,0.0,0.0,56,0.00,,SKC,0.00,VWS V14.00,2013-04-16 03:10:00,
2013-04-15 23:15:00,64.0,48.0,29.03,NW,310,0.0,0.0,56,0.00,,SKC,0.00,VWS V14.00,2013-04-16 03:15:00,
2013-04-15 23:20:00,63.9,47.9,29.03,NW,310,0.0,0.0,56,0.00,,SKC,0.00,VWS V14.00,2013-04-16 03:20:00,
2013-04-15 23:25:00,63.5,48.0,29.03,NW,310,0.0,0.0,57,0.00,,SKC,0.00,VWS V14.00,2013-04-16 03:25:00,
2013-04-15 23:30:00,63.5,48.0,29.03,NW,310,0.0,0.0,57,0.00,,SKC,0.00,VWS V14.00,2013-04-16 03:30:00,
2013-04-15 23:35:00,63.3,47.8,29.03,NW,310,0.0,0.0,57,0.00,,SKC,0.00,VWS V14.00,2013-04-16 03:35:00,
2013-04-15 23:40:00,63.1,47.7,29.03,NW,310,0.0,0.0,57,0.00,,SKC,0.00,VWS V14.00,2013-04-16 03:40:00,
2013-04-15 23:45:00,63.1,47.7,29.03,NW,310,0.0,0.0,57,0.00,,SKC,0.00,VWS V14.00,2013-04-16 03:45:00,
2013-04-15 23:50:00,63.1,47.7,29.03,NW,310,0.0,0.0,57,0.00,,SKC,0.00,VWS V14.00,2013-04-16 03:50:00,
2013-04-15 23:55:00,62.8,47.8,29.03,NW,309,0.0,0.0,58,0.00,,SKC,0.00,VWS V14.00,2013-04-16 03:55:00,